#timestamp,LO_Frequency,Hit,StdDev 
1610445615.8,286047006.7,N
1610445635.6,286047008.1,N
1610445655.4,286047008.9,N
1610445675.3,286047008.0,N
1610445695.1,286047007.9,N
1610445715.9,286047006.5,N
1610445735.7,286047007.1,N
1610445755.5,286047006.3,N
1610445775.4,286047006.9,N
1610445795.2,286047006.1,N
1610445815.0,286047004.8,N
1610445815.9,286047004.8,N
1610445835.8,286047000.7,N
1610445855.6,286047002.1,N
1610445875.5,286046998.1,N
1610445895.3,286046999.9,N
1610445915.1,286047004.4,N
1610445935.9,286047000.5,N
1610445955.7,286047000.8,N
1610445975.6,286047002.2,N
1610445995.4,286046996.6,N
1610446015.2,286046994.8,N
1610446035.1,286046992.5,N
1610446036.0,286046992.5,N
1610446055.8,286046996.0,N
1610446075.6,286046995.3,N
1610446095.5,286046997.1,N
1610446115.3,286046997.2,N
1610446135.2,286046996.7,N
1610446155.9,286047001.4,N
1610446175.7,286047002.9,N
1610446195.6,286046999.7,N
1610446215.4,286047000.0,N
1610446235.3,286047005.5,N
1610446255.1,286047006.9,N
1610446256.0,286047006.9,N
1610446275.8,286047001.4,N
1610446295.7,286047002.0,N
1610446315.5,286047001.4,N
1610446335.3,286047003.5,N
1610446355.2,286047006.0,N
1610446375.0,286047008.7,N
1610446375.9,286047008.7,N
1610446395.8,286047007.3,N
1610446415.6,286047007.1,N
1610446435.4,286047004.0,N
1610446455.3,286047002.4,N
1610446475.1,286047001.8,N
1610446495.9,286047002.1,N
1610446515.7,286047002.8,N
1610446535.5,286047000.4,N
1610446555.4,286047000.5,N
1610446575.2,286047000.1,N
1610446595.0,286047002.4,N
1610446596.0,286047002.4,N
1610446615.8,286046999.4,N
1610446635.6,286046996.0,N
1610446655.5,286047001.9,N
1610446675.3,286047003.5,N
1610446695.1,286047004.2,N
1610446715.9,286047004.2,N
1610446735.7,286046999.8,N
1610446755.6,286047001.1,N
1610446775.4,286046999.6,N
1610446795.2,286046999.1,N
1610446815.1,286046998.8,N
1610446816.0,286046998.8,N
1610446835.8,286046999.0,N
1610446855.7,286047001.1,N
1610446875.5,286047000.6,N
1610446895.3,286046999.3,N
1610446915.2,286046994.7,N
1610446935.0,286046990.2,Y
1610446935.9,286046990.2,P
1610446955.8,286046988.3,N
1610446975.6,286046983.9,N
1610446995.4,286046986.0,N
1610447015.3,286046987.3,N
1610447035.1,286046987.6,N
1610447055.8,286046986.3,N
1610447075.7,286046983.4,Y
1610447095.5,286046990.3,P
1610447115.4,286046990.7,P
1610447135.2,286046994.3,P
1610447155.0,286046995.8,N
1610447155.9,286046995.8,N
1610447175.8,286046997.5,N
1610447195.6,286047011.9,Y
1610447215.5,286047004.7,P
1610447235.3,286047005.3,N
1610447255.1,286047007.6,N
1610447275.9,286047009.1,N
1610447295.7,286047005.6,N
1610447315.5,286047002.5,N
1610447335.4,286046999.4,N
1610447355.2,286047002.4,N
1610447375.1,286046997.5,N
1610447376.0,286046997.5,N
1610447395.8,286046992.4,N
1610447415.6,286046993.3,N
1610447435.5,286046999.9,N
1610447455.3,286047003.9,N
1610447475.2,286047005.7,N
1610447495.9,286047004.7,N
1610447515.7,286047008.5,N
1610447535.6,286047010.7,N
1610447555.4,286047011.1,N
1610447575.2,286047010.2,N
1610447595.1,286047010.3,N
1610447596.0,286047010.3,N
1610447615.8,286047011.1,N
1610447635.7,286047013.3,N
1610447655.5,286047014.8,N
1610447675.3,286047014.5,N
1610447695.2,286047018.2,N
1610447715.0,286047018.2,N
1610447715.9,286047018.2,N
1610447735.8,286047017.6,N
1610447755.6,286047019.1,N
1610447775.4,286047019.1,N
1610447795.3,286047015.0,N
1610447815.1,286047012.8,N
1610447835.8,286047012.8,N
1610447855.7,286047014.1,N
1610447875.5,286047016.3,N
1610447895.4,286047014.4,N
1610447915.2,286047014.6,N
1610447935.0,286047014.2,N
1610447935.9,286047014.2,N
1610447955.8,286047014.2,N
1610447975.6,286047013.2,N
1610447995.5,286047013.3,Y
1610448015.3,286047001.1,P
1610448035.1,286047001.6,N
1610448055.9,286047000.6,N
1610448075.7,286047002.4,N
1610448095.5,286047000.1,N
1610448115.4,286046997.2,N
1610448135.2,286046998.9,N
1610448155.1,286046996.8,N
1610448156.0,286046996.8,N
1610448175.8,286046999.6,N
1610448195.6,286047000.8,N
1610448215.5,286047002.0,N
1610448235.3,286047003.1,N
1610448255.2,286047005.5,N
1610448275.9,286047005.1,N
1610448295.7,286047007.6,N
1610448315.6,286047006.6,N
1610448335.4,286047010.8,N
1610448355.2,286047010.8,N
1610448375.1,286047006.5,N
1610448376.0,286047006.5,N
1610448395.8,286047004.8,N
1610448415.7,286047006.0,N
1610448435.5,286047005.3,N
1610448455.3,286047005.7,N
1610448475.2,286047005.0,N
1610448495.0,286047007.1,N
1610448495.9,286047007.1,N
1610448515.7,286047004.7,N
1610448535.6,286047004.3,N
1610448555.4,286047001.3,N
1610448575.3,286047005.5,N
1610448595.1,286047004.2,N
1610448615.8,286047001.9,N
1610448635.7,286047004.7,N
1610448655.5,286047004.7,N
1610448675.4,286047003.4,N
1610448695.2,286047004.2,N
1610448715.0,286047005.9,N
1610448715.9,286047005.9,N
1610448735.8,286047002.9,N
1610448755.6,286047006.0,N
1610448775.4,286047003.6,N
1610448795.3,286047004.2,N
1610448815.1,286047001.4,N
1610448835.9,286047003.0,N
1610448855.7,286047003.9,N
1610448875.5,286047002.3,N
1610448895.4,286047000.7,N
1610448915.2,286046996.6,N
1610448935.1,286046994.2,N
1610448936.0,286046994.2,N
1610448955.8,286046991.4,N
1610448975.6,286046987.6,Y
1610448995.5,286046981.3,P
1610449015.3,286046977.3,N
1610449035.2,286046978.7,N
1610449055.9,286046980.3,N
1610449075.7,286046984.8,N
1610449095.6,286046986.7,N
1610449115.4,286046985.1,N
1610449135.2,286046985.2,N
1610449155.1,286046984.7,N
1610449156.0,286046984.7,N
1610449175.8,286046986.7,N
1610449195.7,286046984.1,N
